| time (UTC) | temp F | wind direction | speed MPH | gust MPH | rain 1hr in | rain 24hr in | rain mn in | humidity % | barometer mb |
| 20260509104816 | 66 | 312 | 3.0 | 12.0 | 0.00 | 0.00 | 0.00 | 46 | 1018.4 |
| 20260509103314 | 65 | 327 | 3.0 | 8.0 | 0.00 | 0.00 | 0.00 | 47 | 1018.5 |
| 20260509101315 | 65 | 328 | 5.0 | 8.0 | 0.00 | 0.00 | 0.00 | 46 | 1018.6 |
| 20260509100315 | 65 | 53 | 3.0 | 10.0 | 0.00 | 0.00 | 0.00 | 47 | 1018.6 |
| 20260509095318 | 64 | 350 | 3.0 | 10.0 | 0.00 | 0.00 | 0.00 | 48 | 1018.6 |
| 20260509094815 | 64 | 5 | 3.0 | 7.0 | 0.00 | 0.00 | 0.00 | 47 | 1018.6 |
| 20260509094315 | 64 | 336 | 2.0 | 9.0 | 0.00 | 0.00 | 0.00 | 47 | 1018.6 |
| 20260509092816 | 64 | 46 | 2.0 | 7.0 | 0.00 | 0.00 | 0.00 | 51 | 1018.6 |
| 20260509092316 | 63 | 4 | 2.0 | 7.0 | 0.00 | 0.00 | 0.00 | 51 | 1018.7 |
| 20260509091817 | 63 | 57 | 3.0 | 5.0 | 0.00 | 0.00 | 0.00 | 53 | 1018.7 |
| 20260509090315 | 63 | 18 | 2.0 | 7.0 | 0.00 | 0.00 | 0.00 | 54 | 1018.7 |
| 20260509081814 | 60 | 343 | 2.0 | 7.0 | 0.00 | 0.00 | 0.00 | 58 | 1019.0 |
| 20260509081315 | 60 | 19 | 2.0 | 6.0 | 0.00 | 0.00 | 0.00 | 58 | 1019.0 |
| 20260509080815 | 59 | 332 | 2.0 | 7.0 | 0.00 | 0.00 | 0.00 | 61 | 1019.0 |
| 20260509075815 | 58 | 41 | 1.0 | 5.0 | 0.00 | 0.00 | 0.00 | 66 | 1019.0 |
| 20260509075315 | 58 | 310 | 1.0 | 3.0 | 0.00 | 0.00 | 0.00 | 73 | 1019.1 |
| 20260509074815 | 57 | 309 | 0.0 | 5.0 | 0.00 | 0.00 | 0.00 | 75 | 1019.1 |
| 20260509074314 | 56 | 321 | 0.0 | 2.0 | 0.00 | 0.00 | 0.00 | 76 | 1019.1 |
| 20260509071814 | 54 | 279 | 0.0 | 5.0 | 0.00 | 0.00 | 0.00 | 83 | 1019.1 |
| 20260509071314 | 53 | 188 | 0.0 | 0.0 | 0.00 | 0.00 | 0.00 | 85 | 1019.1 |
| 20260509065315 | 52 | 184 | 0.0 | 0.0 | 0.00 | 0.00 | 0.00 | 89 | 1019.1 |
| 20260509064314 | 51 | 184 | 0.0 | 3.0 | 0.00 | 0.00 | 0.00 | 92 | 1019.1 |
| 20260509063814 | 50 | 127 | 0.0 | 0.0 | 0.00 | 0.00 | 0.00 | 95 | 1019.1 |
| 20260509055814 | 44 | 126 | 0.0 | 0.0 | 0.00 | 0.00 | 0.00 | 99 | 1019.0 |
| 20260509053315 | 40 | 126 | 0.0 | 2.0 | 0.00 | 0.00 | 0.00 | 98 | 1019.0 |
| 20260509052815 | 40 | 126 | 0.0 | 1.0 | 0.00 | 0.00 | 0.00 | 98 | 1019.0 |
| 20260509051314 | 39 | 126 | 0.0 | 0.0 | 0.00 | 0.00 | 0.00 | 97 | 1019.0 |
| 20260509050815 | 39 | 126 | 0.0 | 0.0 | 0.00 | 0.00 | 0.00 | 97 | 1018.9 |
| 20260509050314 | 39 | 126 | 0.0 | 1.0 | 0.00 | 0.00 | 0.00 | 97 | 1018.9 |
| 20260509045315 | 38 | 126 | 0.0 | 0.0 | 0.00 | 0.00 | 0.00 | 97 | 1018.8 |
| 20260509044314 | 38 | 126 | 0.0 | 0.0 | 0.00 | 0.00 | 0.00 | 97 | 1018.8 |
| 20260509043814 | 38 | 126 | 0.0 | 0.0 | 0.00 | 0.00 | 0.00 | 96 | 1018.8 |
| 20260509043314 | 38 | 126 | 0.0 | 0.0 | 0.00 | 0.00 | 0.00 | 96 | 1018.8 |
| 20260509042815 | 38 | 126 | 0.0 | 2.0 | 0.00 | 0.00 | 0.00 | 96 | 1018.8 |
| 20260509041814 | 38 | 126 | 0.0 | 0.0 | 0.00 | 0.00 | 0.00 | 96 | 1018.8 |
| 20260509040815 | 38 | 126 | 0.0 | 2.0 | 0.00 | 0.00 | 0.00 | 96 | 1018.7 |
| 20260509035814 | 38 | 126 | 0.0 | 1.0 | 0.00 | 0.00 | 0.00 | 95 | 1018.7 |
| 20260509035314 | 38 | 126 | 0.0 | 0.0 | 0.00 | 0.00 | 0.00 | 96 | 1018.8 |
| 20260509033314 | 38 | 126 | 0.0 | 2.0 | 0.00 | 0.00 | 0.00 | 96 | 1018.8 |
| 20260509032815 | 38 | 126 | 0.0 | 2.0 | 0.00 | 0.00 | 0.00 | 96 | 1018.8 |
| 20260509031814 | 38 | 126 | 0.0 | 2.0 | 0.00 | 0.00 | 0.00 | 95 | 1019.0 |
| 20260509031314 | 38 | 126 | 0.0 | 0.0 | 0.00 | 0.00 | 0.00 | 95 | 1019.0 |
| 20260509025314 | 38 | 126 | 0.0 | 0.0 | 0.00 | 0.00 | 0.00 | 95 | 1018.9 |
| 20260509023814 | 39 | 126 | 0.0 | 0.0 | 0.00 | 0.00 | 0.00 | 95 | 1019.0 |
| 20260509023314 | 39 | 126 | 0.0 | 0.0 | 0.00 | 0.00 | 0.00 | 94 | 1019.0 |
| 20260509022814 | 39 | 126 | 0.0 | 0.0 | 0.00 | 0.00 | 0.00 | 94 | 1019.0 |
| 20260509021813 | 39 | 126 | 0.0 | 0.0 | 0.00 | 0.00 | 0.00 | 94 | 1019.0 |
| 20260509021314 | 39 | 126 | 0.0 | 0.0 | 0.00 | 0.00 | 0.00 | 94 | 1019.0 |
| 20260509020814 | 39 | 126 | 0.0 | 0.0 | 0.00 | 0.00 | 0.00 | 94 | 1019.0 |
| 20260509013814 | 40 | 126 | 0.0 | 1.0 | 0.00 | 0.00 | 0.00 | 93 | 1019.1 |
| 20260509013314 | 40 | 126 | 0.0 | 1.0 | 0.00 | 0.00 | 0.00 | 93 | 1019.1 |
| 20260509012314 | 40 | 126 | 0.0 | 0.0 | 0.00 | 0.00 | 0.00 | 93 | 1019.2 |
| 20260509010314 | 41 | 126 | 0.0 | 1.0 | 0.00 | 0.00 | 0.00 | 93 | 1019.2 |
| 20260509005813 | 42 | 126 | 0.0 | 0.0 | 0.00 | 0.00 | 0.00 | 93 | 1019.2 |
| 20260509004815 | 42 | 126 | 0.0 | 0.0 | 0.00 | 0.00 | 0.00 | 93 | 1019.1 |
| 20260509004315 | 42 | 126 | 0.0 | 0.0 | 0.00 | 0.00 | 0.00 | 92 | 1019.1 |
| 20260509003814 | 43 | 126 | 0.0 | 0.0 | 0.00 | 0.00 | 0.00 | 92 | 1019.1 |
| 20260509003314 | 43 | 126 | 0.0 | 0.0 | 0.00 | 0.00 | 0.00 | 92 | 1019.1 |
| 20260509002814 | 43 | 126 | 0.0 | 0.0 | 0.00 | 0.00 | 0.00 | 92 | 1019.1 |
| 20260509002314 | 43 | 126 | 0.0 | 0.0 | 0.00 | 0.00 | 0.00 | 92 | 1019.1 |
| 20260509001314 | 44 | 126 | 0.0 | 0.0 | 0.00 | 0.00 | 0.00 | 92 | 1019.1 |
| 20260509000314 | 45 | 126 | 0.0 | 0.0 | 0.00 | 0.00 | 0.00 | 93 | 1019.2 |
| 20260508235814 | 45 | 126 | 0.0 | 0.0 | 0.00 | 0.00 | 0.00 | 93 | 1019.2 |
| 20260508234814 | 46 | 126 | 0.0 | 2.0 | 0.00 | 0.00 | 0.00 | 94 | 1019.3 |
| 20260508234313 | 46 | 126 | 0.0 | 2.0 | 0.00 | 0.00 | 0.00 | 94 | 1019.3 |
| 20260508232314 | 45 | 126 | 0.0 | 2.0 | 0.00 | 0.00 | 0.00 | 94 | 1019.5 |
| 20260508231815 | 45 | 126 | 0.0 | 0.0 | 0.00 | 0.00 | 0.00 | 95 | 1019.5 |
| 20260508230814 | 45 | 126 | 0.0 | 0.0 | 0.00 | 0.00 | 0.00 | 95 | 1019.4 |
| 20260508225814 | 44 | 126 | 0.0 | 0.0 | 0.00 | 0.00 | 0.00 | 95 | 1019.4 |
| 20260508225315 | 44 | 126 | 0.0 | 0.0 | 0.00 | 0.00 | 0.00 | 95 | 1019.5 |
| 20260508224814 | 44 | 126 | 0.0 | 0.0 | 0.00 | 0.00 | 0.00 | 94 | 1019.5 |
| 20260508223314 | 43 | 126 | 0.0 | 0.0 | 0.00 | 0.00 | 0.00 | 92 | 1019.4 |
| 20260508221314 | 44 | 126 | 0.0 | 0.0 | 0.00 | 0.00 | 0.00 | 90 | 1019.2 |
| 20260508215814 | 44 | 126 | 0.0 | 0.0 | 0.00 | 0.00 | 0.00 | 90 | 1019.1 |
| 20260508214314 | 45 | 126 | 0.0 | 0.0 | 0.00 | 0.00 | 0.00 | 90 | 1019.1 |
| 20260508213314 | 45 | 126 | 0.0 | 0.0 | 0.00 | 0.00 | 0.00 | 89 | 1019.3 |
| 20260508212315 | 46 | 126 | 0.0 | 0.0 | 0.00 | 0.00 | 0.00 | 88 | 1019.2 |
| 20260508211313 | 46 | 126 | 0.0 | 1.0 | 0.00 | 0.00 | 0.00 | 86 | 1019.2 |
| 20260508210814 | 47 | 126 | 0.0 | 0.0 | 0.00 | 0.00 | 0.00 | 87 | 1019.1 |
| 20260508205814 | 47 | 126 | 0.0 | 0.0 | 0.00 | 0.00 | 0.00 | 88 | 1019.1 |
| 20260508205314 | 48 | 126 | 0.0 | 0.0 | 0.00 | 0.00 | 0.00 | 87 | 1019.1 |
| 20260508204314 | 48 | 126 | 0.0 | 0.0 | 0.00 | 0.00 | 0.00 | 87 | 1019.1 |
| 20260508202814 | 48 | 126 | 0.0 | 0.0 | 0.00 | 0.00 | 0.00 | 86 | 1019.0 |
| 20260508202314 | 49 | 126 | 0.0 | 0.0 | 0.00 | 0.00 | 0.00 | 86 | 1019.0 |
| 20260508201314 | 49 | 126 | 0.0 | 0.0 | 0.00 | 0.00 | 0.00 | 84 | 1019.0 |
| 20260508195814 | 50 | 126 | 0.0 | 0.0 | 0.00 | 0.00 | 0.00 | 82 | 1018.9 |
| 20260508195314 | 50 | 126 | 0.0 | 0.0 | 0.00 | 0.00 | 0.00 | 81 | 1018.9 |
| 20260508193314 | 52 | 126 | 0.0 | 0.0 | 0.00 | 0.00 | 0.00 | 76 | 1018.7 |
| 20260508192814 | 53 | 126 | 0.0 | 0.0 | 0.00 | 0.00 | 0.00 | 75 | 1018.7 |
| 20260508191817 | 54 | 126 | 0.0 | 1.0 | 0.00 | 0.00 | 0.00 | 73 | 1018.4 |
| 20260508191314 | 55 | 126 | 0.0 | 1.0 | 0.00 | 0.00 | 0.00 | 72 | 1018.4 |
| 20260508185813 | 57 | 126 | 0.0 | 2.0 | 0.00 | 0.00 | 0.00 | 67 | 1018.2 |
| 20260508185314 | 58 | 126 | 0.0 | 3.0 | 0.00 | 0.00 | 0.00 | 64 | 1017.9 |
| 20260508184814 | 58 | 126 | 0.0 | 2.0 | 0.00 | 0.00 | 0.00 | 62 | 1017.9 |
| 20260508184314 | 59 | 136 | 0.0 | 2.0 | 0.00 | 0.00 | 0.00 | 62 | 1017.9 |
| 20260508183814 | 60 | 51 | 0.0 | 2.0 | 0.00 | 0.00 | 0.00 | 60 | 1017.8 |
| 20260508183314 | 61 | 52 | 0.0 | 3.0 | 0.00 | 0.00 | 0.00 | 59 | 1017.8 |
| 20260508182314 | 62 | 49 | 0.0 | 2.0 | 0.00 | 0.00 | 0.00 | 55 | 1017.7 |
| 20260508181814 | 62 | 49 | 2.0 | 2.0 | 0.00 | 0.00 | 0.00 | 53 | 1017.7 |
| 20260508181314 | 62 | 38 | 2.0 | 1.0 | 0.00 | 0.00 | 0.00 | 51 | 1017.7 |
| 20260508180814 | 63 | 38 | 2.0 | 6.0 | 0.00 | 0.00 | 0.00 | 50 | 1017.6 |
| 20260508180313 | 63 | 55 | 2.0 | 6.0 | 0.00 | 0.00 | 0.00 | 48 | 1017.6 |
| 20260508174814 | 64 | 22 | 2.0 | 7.0 | 0.00 | 0.00 | 0.00 | 48 | 1017.4 |
| 20260508173314 | 64 | 50 | 1.0 | 3.0 | 0.00 | 0.00 | 0.00 | 48 | 1017.4 |
| 20260508172814 | 64 | 61 | 2.0 | 5.0 | 0.00 | 0.00 | 0.00 | 48 | 1017.4 |
| 20260508172314 | 63 | 29 | 2.0 | 5.0 | 0.00 | 0.00 | 0.00 | 49 | 1017.3 |
| 20260508171814 | 63 | 81 | 2.0 | 5.0 | 0.00 | 0.00 | 0.00 | 47 | 1017.3 |
| 20260508171314 | 63 | 41 | 2.0 | 6.0 | 0.00 | 0.00 | 0.00 | 46 | 1017.3 |
| 20260508170814 | 64 | 69 | 3.0 | 9.0 | 0.00 | 0.00 | 0.00 | 46 | 1017.3 |
| 20260508170314 | 64 | 82 | 3.0 | 7.0 | 0.00 | 0.00 | 0.00 | 46 | 1017.3 |
| 20260508165814 | 64 | 77 | 3.0 | 9.0 | 0.00 | 0.00 | 0.00 | 46 | 1017.3 |
| 20260508165313 | 64 | 66 | 2.0 | 7.0 | 0.00 | 0.00 | 0.00 | 46 | 1017.2 |
| 20260508164814 | 64 | 45 | 3.0 | 6.0 | 0.00 | 0.00 | 0.00 | 47 | 1017.2 |
| 20260508163314 | 64 | 10 | 2.0 | 8.0 | 0.00 | 0.00 | 0.00 | 48 | 1017.2 |
| 20260508161814 | 64 | 84 | 2.0 | 6.0 | 0.00 | 0.00 | 0.00 | 46 | 1017.2 |
| 20260508160814 | 64 | 73 | 2.0 | 7.0 | 0.00 | 0.00 | 0.00 | 47 | 1017.3 |
| 20260508153817 | 64 | 8 | 2.0 | 7.0 | 0.00 | 0.00 | 0.00 | 48 | 1017.5 |
| 20260508153317 | 64 | 45 | 2.0 | 7.0 | 0.00 | 0.00 | 0.00 | 48 | 1017.5 |
| 20260508152814 | 63 | 134 | 2.0 | 5.0 | 0.00 | 0.00 | 0.00 | 50 | 1017.5 |
| 20260508152313 | 63 | 51 | 2.0 | 6.0 | 0.00 | 0.00 | 0.00 | 50 | 1017.6 |
| 20260508150814 | 63 | 14 | 2.0 | 6.0 | 0.00 | 0.00 | 0.00 | 49 | 1017.7 |
| 20260508150313 | 63 | 64 | 2.0 | 6.0 | 0.00 | 0.00 | 0.00 | 49 | 1017.7 |
| 20260508144313 | 63 | 27 | 2.0 | 13.0 | 0.00 | 0.00 | 0.00 | 50 | 1017.7 |
| 20260508143813 | 63 | 47 | 3.0 | 5.0 | 0.00 | 0.00 | 0.00 | 52 | 1017.8 |
| 20260508142814 | 63 | 52 | 3.0 | 9.0 | 0.00 | 0.00 | 0.00 | 51 | 1017.8 |
| 20260508140814 | 63 | 96 | 2.0 | 6.0 | 0.00 | 0.00 | 0.00 | 51 | 1018.1 |
| 20260508135314 | 63 | 59 | 2.0 | 5.0 | 0.00 | 0.00 | 0.00 | 51 | 1018.1 |
| 20260508133314 | 62 | 100 | 2.0 | 5.0 | 0.00 | 0.00 | 0.00 | 53 | 1018.1 |
| 20260508132313 | 62 | 137 | 2.0 | 6.0 | 0.00 | 0.00 | 0.00 | 53 | 1018.1 |
| 20260508131815 | 62 | 99 | 2.0 | 6.0 | 0.00 | 0.00 | 0.00 | 53 | 1018.1 |
| 20260508125313 | 61 | 144 | 2.0 | 5.0 | 0.00 | 0.00 | 0.00 | 55 | 1018.2 |
| 20260508124314 | 61 | 71 | 1.0 | 7.0 | 0.00 | 0.00 | 0.00 | 55 | 1018.2 |
| 20260508123814 | 61 | 81 | 1.0 | 7.0 | 0.00 | 0.00 | 0.00 | 56 | 1018.2 |
| 20260508123313 | 61 | 297 | 1.0 | 0.0 | 0.00 | 0.00 | 0.00 | 56 | 1018.2 |
| 20260508122314 | 60 | 127 | 0.0 | 2.0 | 0.00 | 0.00 | 0.00 | 60 | 1018.2 |
| 20260508121815 | 60 | 129 | 1.0 | 2.0 | 0.00 | 0.00 | 0.00 | 59 | 1018.2 |
| 20260508115314 | 61 | 131 | 1.0 | 5.0 | 0.00 | 0.00 | 0.00 | 54 | 1018.2 |
| 20260508114814 | 61 | 60 | 2.0 | 5.0 | 0.00 | 0.00 | 0.00 | 58 | 1018.2 |
| 20260508114314 | 61 | 36 | 2.0 | 2.0 | 0.00 | 0.00 | 0.00 | 59 | 1018.2 |
| 20260508113314 | 60 | 60 | 2.0 | 5.0 | 0.00 | 0.00 | 0.00 | 59 | 1018.2 |
| 20260508112814 | 61 | 87 | 2.0 | 6.0 | 0.00 | 0.00 | 0.00 | 59 | 1018.2 |
| 20260508111813 | 60 | 47 | 2.0 | 6.0 | 0.00 | 0.00 | 0.00 | 60 | 1018.3 |
| 20260508110815 | 60 | 90 | 2.0 | 3.0 | 0.00 | 0.00 | 0.00 | 63 | 1018.2 |